Weather History for Keokuk, IA

Change the Weather History Date:

Wednesday, April 17, 2013

  Actual Average Record
Temperature  
Mean Temperature 53 °F -  
Max Temperature 62 °F 67 °F 87 °F (1977)
Min Temperature 44 °F 44 °F 28 °F (1951)
Degree Days  
Heating Degree Days 12    
Growing Degree Days 3 (Base 50)    
Moisture  
Dew Point 41 °F    
Average Humidity 71    
Maximum Humidity 82    
Minimum Humidity 54    
Precipitation  
Precipitation 1.86 in - - ()
Sea Level Pressure  
Sea Level Pressure 29.96 in    
Wind  
Wind Speed 13 mph (ENE)    
Max Wind Speed 30 mph    
Max Gust Speed 44 mph    
Visibility 8 miles    
Events Rain    
Averages and records for this station are not official NWS values.
T = Trace of Precipitation, MM = Missing Value Source: NWS Daily Summary

Daily Weather History Graph

Daily Weather History Graph

Search for Another Location

Airport:

Trip Planner

Search our weather history database for the weather conditions in past years. The results will help you decide how hot, cold, wet, or windy it might be!

Date:

Astronomy

Apr. 17, 2013 Rise Set
Actual Time 6:23 AM CDT 7:47 PM CDT
Civil Twilight 5:55 AM CDT 8:15 PM CDT
Nautical Twilight 5:21 AM CDT 8:49 PM CDT
Astronomical Twilight 4:45 AM CDT 9:26 PM CDT
Moon 11:37 AM CDT (4/17) 1:25 AM CDT (4/17)
Length of Visible Light 14h 20m
Length of Day
13h 23m
Waxing Crescent, 42% of the Moon is Illuminated
Apr 17
Waxing Crescent
Apr 18
First Quarter
Apr 25
Full
May 2
Last Quarter
May 9
New

Hourly Weather History & Observations

Time (CDT) Temp. Windchill Dew Point Humidity Pressure Visibility Wind Dir Wind Speed Gust Speed Precip Events Conditions
12:15 AM 51.8 °F - 35.6 °F 54% 30.18 in 10.0 mi ENE 6.9 mph - N/A   Overcast
12:35 AM 51.8 °F - 37.4 °F 58% 30.17 in 10.0 mi ENE 9.2 mph - N/A   Overcast
12:55 AM 51.8 °F - 37.4 °F 58% 30.17 in 10.0 mi ENE 8.1 mph - N/A   Overcast
1:15 AM 51.8 °F - 37.4 °F 58% 30.18 in 10.0 mi ENE 6.9 mph - N/A   Overcast
1:35 AM 51.8 °F - 37.4 °F 58% 30.18 in 10.0 mi NE 5.8 mph - N/A   Overcast
1:55 AM 51.8 °F - 37.4 °F 58% 30.16 in 10.0 mi ENE 8.1 mph - N/A   Overcast
2:15 AM 51.8 °F - 37.4 °F 58% 30.16 in 10.0 mi NE 8.1 mph - N/A   Overcast
2:35 AM 51.8 °F - 39.2 °F 62% 30.15 in 10.0 mi NE 8.1 mph - N/A   Light Drizzle
2:55 AM 51.8 °F - 39.2 °F 62% 30.15 in 10.0 mi ENE 8.1 mph 11.5 mph N/A   Overcast
3:15 AM 51.8 °F - 39.2 °F 62% 30.13 in 10.0 mi ENE 13.8 mph - N/A   Overcast
3:35 AM 51.8 °F - 39.2 °F 62% 30.13 in 10.0 mi ENE 15.0 mph - N/A   Overcast
3:55 AM 51.8 °F - 39.2 °F 62% 30.11 in 10.0 mi East 15.0 mph - N/A   Overcast
4:15 AM 51.8 °F - 39.2 °F 62% 30.11 in 10.0 mi East 13.8 mph 18.4 mph N/A   Overcast
4:35 AM 51.8 °F - 39.2 °F 62% 30.09 in 10.0 mi East 16.1 mph 23.0 mph N/A   Overcast
4:55 AM 50.0 °F - 39.2 °F 66% 30.10 in 10.0 mi East 17.3 mph 20.7 mph N/A   Overcast
5:15 AM 48.2 °F - 37.4 °F 66% 30.10 in 10.0 mi East 16.1 mph 20.7 mph N/A Rain Light Rain
5:35 AM 48.2 °F - 35.6 °F 62% 30.09 in 10.0 mi East 17.3 mph 26.5 mph N/A   Overcast
5:55 AM 48.2 °F - 37.4 °F 66% 30.10 in 10.0 mi ENE 12.7 mph - N/A   Overcast
6:15 AM 48.2 °F - 35.6 °F 62% 30.10 in 10.0 mi ENE 15.0 mph - N/A   Overcast
6:35 AM 48.2 °F - 35.6 °F 62% 30.09 in 10.0 mi ENE 15.0 mph 21.9 mph N/A   Overcast
6:55 AM 48.2 °F - 35.6 °F 62% 30.09 in 10.0 mi ENE 12.7 mph - N/A   Overcast
7:15 AM 46.4 °F 41.1 °F 35.6 °F 66% 30.09 in 10.0 mi ENE 11.5 mph - N/A   Light Drizzle
7:35 AM 46.4 °F 39.2 °F 37.4 °F 71% 30.08 in 5.0 mi East 18.4 mph 21.9 mph N/A   Haze
7:55 AM 46.4 °F 39.8 °F 37.4 °F 71% 30.07 in 10.0 mi East 16.1 mph 20.7 mph N/A   Overcast
8:15 AM 46.4 °F 38.7 °F 35.6 °F 66% 30.03 in 10.0 mi East 20.7 mph 32.2 mph N/A   Overcast
8:35 AM 46.4 °F 39.2 °F 37.4 °F 71% 30.04 in 7.0 mi East 18.4 mph 26.5 mph N/A   Overcast
9:15 AM 46.4 °F 40.1 °F 37.4 °F 71% 30.01 in 1.8 mi East 15.0 mph 24.2 mph N/A   Overcast
9:35 AM 46.4 °F 39.2 °F 37.4 °F 71% 30.01 in 2.5 mi ESE 18.4 mph 24.2 mph N/A   Overcast
9:55 AM 46.4 °F 39.2 °F 39.2 °F 76% 30.01 in 5.0 mi ESE 18.4 mph 23.0 mph N/A   Haze
10:15 AM 46.4 °F 41.1 °F 39.2 °F 76% 30.01 in 5.0 mi ESE 11.5 mph 18.4 mph N/A   Haze
10:35 AM 46.4 °F 41.9 °F 39.2 °F 76% 30.02 in 4.0 mi ESE 9.2 mph - N/A   Haze
10:55 AM 48.2 °F - 39.2 °F 71% 30.00 in 2.5 mi ESE 9.2 mph - N/A   Haze
11:15 AM 48.2 °F - 41.0 °F 76% 29.99 in 2.5 mi ESE 8.1 mph - N/A   Haze
11:35 AM 48.2 °F - 41.0 °F 76% 29.99 in 1.8 mi ESE 8.1 mph - N/A   Haze
11:55 AM 48.2 °F - 41.0 °F 76% 30.07 in 1.5 mi WNW 21.9 mph 29.9 mph N/A   Haze
12:15 PM 46.4 °F 40.7 °F 39.2 °F 76% 30.05 in 1.0 mi North 12.7 mph 19.6 mph N/A Rain Rain
12:35 PM 46.4 °F 40.7 °F 39.2 °F 76% 30.02 in 2.0 mi North 12.7 mph 21.9 mph N/A Rain Light Rain
12:55 PM 46.4 °F 40.7 °F 37.4 °F 71% 30.00 in 5.0 mi NNE 12.7 mph 19.6 mph 0.01 in Rain Light Rain
1:15 PM 44.6 °F 38.1 °F 37.4 °F 76% 29.96 in 10.0 mi NE 13.8 mph 21.9 mph N/A   Overcast
1:35 PM 44.6 °F 36.9 °F 37.4 °F 76% 29.94 in 10.0 mi NE 18.4 mph 25.3 mph N/A Rain Light Rain
1:55 PM 44.6 °F 38.1 °F 37.4 °F 76% 29.96 in 5.0 mi NE 13.8 mph 18.4 mph 0.04 in Rain Heavy Rain
2:15 PM 44.6 °F 39.2 °F 37.4 °F 76% 29.97 in 10.0 mi East 10.4 mph - 0.07 in Rain Light Rain
2:35 PM 46.4 °F 41.5 °F 39.2 °F 76% 29.92 in 10.0 mi ENE 10.4 mph - 0.08 in Rain Rain
2:55 PM 46.4 °F 41.9 °F 39.2 °F 76% 30.01 in 3.0 mi West 9.2 mph - 0.14 in Rain Heavy Rain
3:35 PM 46.4 °F 40.7 °F 39.2 °F 76% 29.88 in 5.0 mi East 12.7 mph - 0.34 in Rain Rain
3:55 PM 48.2 °F - 41.0 °F 76% 29.84 in 10.0 mi East 12.7 mph - 0.35 in Rain Light Rain
4:15 PM 48.2 °F - 41.0 °F 76% 29.84 in 7.0 mi East 18.4 mph - 0.02 in Rain Light Rain
4:35 PM 48.2 °F - 42.8 °F 82% 29.85 in 10.0 mi East 11.5 mph 24.2 mph 0.03 in   Overcast
4:55 PM 48.2 °F - 42.8 °F 82% 29.90 in 10.0 mi NW 9.2 mph - 0.03 in   Overcast
5:15 PM 48.2 °F - 42.8 °F 82% 29.87 in 7.0 mi North 6.9 mph - N/A Rain Rain
5:35 PM 48.2 °F - 41.0 °F 76% 29.86 in 4.0 mi East 17.3 mph - 0.16 in Rain Heavy Rain
5:55 PM 48.2 °F - 42.8 °F 82% 29.81 in 7.0 mi East 17.3 mph 28.8 mph 0.21 in Rain Light Rain
6:15 PM 50.0 °F - 42.8 °F 76% 29.87 in 5.0 mi North 4.6 mph - 0.11 in Rain Heavy Rain
6:35 PM 51.8 °F - 44.6 °F 76% 29.78 in 4.0 mi ESE 20.7 mph - 0.25 in Rain Rain
6:55 PM 55.4 °F - 46.4 °F 72% 29.72 in 7.0 mi East 29.9 mph 43.7 mph 0.29 in Rain Rain
7:15 PM 57.2 °F - 50.0 °F 77% 29.74 in 10.0 mi East 23.0 mph 32.2 mph 0.03 in Rain Light Rain
7:35 PM 59.0 °F - 51.8 °F 77% 29.75 in 10.0 mi East 17.3 mph 38.0 mph 0.06 in Rain Light Rain
7:55 PM 57.2 °F - 50.0 °F 77% 29.77 in 10.0 mi ESE 19.6 mph 25.3 mph 0.14 in Rain Rain
8:15 PM 57.2 °F - 50.0 °F 77% 29.72 in 10.0 mi ESE 23.0 mph 29.9 mph 0.04 in Rain Rain
8:35 PM 57.2 °F - 51.8 °F 82% 29.70 in 7.0 mi ESE 26.5 mph 34.5 mph 0.10 in Rain Rain
8:55 PM 59.0 °F - 51.8 °F 77% 29.69 in 10.0 mi ESE 28.8 mph 35.7 mph 0.13 in Rain Light Rain
9:15 PM 59.0 °F - 51.8 °F 77% 29.67 in 10.0 mi ESE 25.3 mph 34.5 mph 0.03 in Rain Light Rain
9:55 PM 59.0 °F - 51.8 °F 77% 29.70 in 10.0 mi ESE 18.4 mph 27.6 mph 0.08 in Rain Rain
10:15 PM 60.8 °F - 51.8 °F 72% 29.63 in 10.0 mi ESE 21.9 mph 26.5 mph 0.02 in Rain Light Rain
10:35 PM 62.6 °F - 53.6 °F 72% 29.61 in 10.0 mi ESE 23.0 mph 28.8 mph 0.03 in Rain Light Rain
10:55 PM 62.6 °F - 53.6 °F 72% 29.72 in 10.0 mi WNW 9.2 mph 24.2 mph 0.05 in Rain Light Rain
11:15 PM 60.8 °F - 51.8 °F 72% 29.71 in 10.0 mi North 11.5 mph - 0.09 in Rain Heavy Rain
11:35 PM 57.2 °F - 48.2 °F 72% 29.72 in 5.0 mi North 13.8 mph 21.9 mph 0.24 in Rain Heavy Rain
11:55 PM 55.4 °F - 48.2 °F 77% 29.71 in 10.0 mi NNE 9.2 mph 19.6 mph 0.39 in Rain Rain